DMSP 5D-2 F13 DEB

Satellite information

Favourite Embed

Satellite Type and Status

DEBRISIN ORBIT

Key statistics

Satellite DMSP 5D-2 F13 DEB at a glance.

Uptime

11063

Days in orbit

Revolutions

≈ 14.5

Per day

Orbit

SSO

Sun Synchronous Orbit

Inclination

98.6

Latest

Satellite identification and parameters

Extended collection of information and parameters for DMSP 5D-2 F13 DEB.

Object identification

Identified? True

Debris? True

Object name: DMSP 5D-2 F13 DEB

International designator: 1995-015FC

Object number (NORAD): 40605

Object ID (CCSDS): 40605

Country: UNITED STATES OF AMERICA (US)

Current information (Y/N): Y

RCS size: SMALL

Orbital parameters

Period: 99.156 minutes

Inclination: 98.6397 deg

SMA: 7096.429 km

Apoapsis: 734.092 km

Periapsis: 702.496 km

RAAN: 237.2647 deg

Eccentricy: 0.0022262

Argument of periapsis: 205.1423 deg

Mean anomaly: 154.8689 deg

Mean motion: 14.5225536 rev/day

Mean motion (dot): 0.00008817 rev/day2

B* drag term: 0.0021732 1/REarth

Two-line elements (TLE)

Creation date: July 5, 2025, 5:45 p.m.

Reference frame: TEME

Reference center: EARTH

Epoch: July 5, 2025, 9:23 a.m. UTC

TLE line 0: 0 DMSP 5D-2 F13 DEB

TLE line 1: 1 40605U 95015FC 25186.39131358 .00008817 00000-0 21732-2 0 9991

TLE line 2: 2 40605 98.6397 237.2647 0022262 205.1423 154.8689 14.52255360532050

Live tracking on map

Real-time ground track for satellite DMSP 5D-2 F13 DEB.

In-orbit conjunctions

A list of the most updated potential collisions computed for object DMSP 5D-2 F13 DEB.

Target Orbit TCA Probability of collision Miss distance Type
SL-8 DEB LEO 2025-01-18 21:36:29 0.0001400517 119.0 (m) DEBRIS
COSMOS 2251 DEB LEO 2024-11-14 16:39:57 0.0001263991 659.0 (m) DEBRIS
COSMOS 1110 LEO 2024-07-29 01:10:09 0.0001527135 825.0 (m) PAYLOAD

Associated space launch

Military meteorological satellite

DMSP 5D-2 F13 DEB was lifted into orbit during the mission ‘Atlas E | DMSP-5D2 F13’, on board a Atlas E space rocket.

The launch took place on March 24, 1995, 2:05 p.m. from Space Launch Complex 3W.

For more information about the launch, click the button.

Launch to space Atlas E | DMSP-5D2 F13
Atlas E | DMSP-5D2 F13

Agency: N/A

Status: Launch Successful

Launch date: March 24, 1995, 2:05 p.m. UTC

Rocket: Atlas E

Launch pad: Space Launch Complex 3W

Location: Vandenberg SFB, CA, USA

...

Latest news about this satellite

There are no fresh news available about this satellite. Check back as we update our databases every day.


Newsletter sign-up

Weekly statistics, charts and insights to help you stay on top of the space industry.